KD2RHT-13 Weather Reports


time (UTC)temp
C
wind
direction
speed
KPH
gust
KPH
rain 1hr
cm
rain 24hr
cm
rain mn
cm
humidity
%
barometer
mb
20260507010415 7 158 0.0 0.0 0.00 1.68 1.68 96 1013.1
20260507005912 7 161 0.0 0.0 0.00 1.68 1.68 96 1013.1
20260507005409 7 160 0.0 0.0 0.00 1.68 1.68 96 1013.1
20260507004906 7 160 0.0 0.0 0.00 1.68 1.68 96 1013.1
20260507004402 7 159 0.0 0.0 0.00 1.68 1.68 96 1013.1
20260507003900 7 159 0.0 0.0 0.00 1.68 1.68 96 1013.1
20260507003355 7 154 0.0 0.0 0.00 1.68 1.68 96 1013.1
20260507002850 7 161 0.0 0.0 0.00 1.68 1.68 96 1012.7
20260507002347 7 167 0.0 0.0 0.00 1.68 1.68 95 1013.1
20260507001844 7 159 0.0 0.0 0.00 1.68 1.68 95 1012.7
20260507001341 7 164 0.0 0.0 0.00 1.68 1.68 95 1012.7
20260507000837 7 151 0.0 0.0 0.00 1.68 1.68 95 1012.7
20260507000333 7 165 0.0 0.0 0.00 1.68 1.68 95 1012.4
20260506235829 7 179 0.0 0.0 0.00 1.68 1.68 95 1012.4
20260506235326 7 159 0.0 0.0 0.00 1.68 1.68 95 1012.4
20260506234822 7 161 0.0 0.0 0.00 1.68 1.68 94 1012.4
20260506234320 7 163 0.0 0.0 0.00 1.68 1.68 94 1012.4
20260506233818 7 229 3.2 4.8 0.00 1.68 1.68 94 1012.4
20260506233313 7 166 0.0 0.0 0.00 1.68 1.68 94 1012.1
20260506232810 8 162 0.0 0.0 0.00 1.68 1.68 94 1011.7
20260506232306 8 160 0.0 0.0 0.00 1.68 1.68 94 1012.1
20260506231803 8 199 0.0 0.0 0.00 1.68 1.68 93 1012.1
20260506231301 8 184 1.6 3.2 0.00 1.68 1.68 94 1012.1
20260506230758 8 175 0.0 0.0 0.00 1.68 1.68 93 1011.4
20260506230255 8 168 0.0 0.0 0.00 1.68 1.68 92 1011.4
20260506225751 8 180 0.0 0.0 0.00 1.68 1.68 92 1011.7
20260506225248 8 297 1.6 1.6 0.00 1.68 1.68 91 1011.4
20260506224744 8 151 0.0 0.0 0.00 1.68 1.68 92 1011.4
20260506224242 8 173 1.6 1.6 0.00 1.68 1.68 93 1012.1
20260506223738 8 169 1.6 1.6 0.00 1.68 1.68 92 1011.7
20260506223234 8 175 0.0 0.0 0.00 1.68 1.68 92 1012.1
20260506222731 8 188 0.0 0.0 0.00 1.68 1.68 92 1012.1
20260506222226 8 194 1.6 1.6 0.00 1.68 1.68 92 1011.7
20260506221724 8 193 1.6 3.2 0.00 1.68 1.68 93 1012.1
20260506221222 8 176 0.0 0.0 0.00 1.68 1.68 93 1012.1
20260506220719 8 171 0.0 1.6 0.00 1.68 1.68 93 1012.1
20260506220214 8 232 3.2 3.2 0.00 1.68 1.68 93 1011.7
20260506215711 8 152 0.0 1.6 0.00 1.68 1.68 93 1012.1
20260506215206 8 168 0.0 0.0 0.00 1.68 1.68 93 1012.1
20260506214703 8 177 1.6 3.2 0.00 1.68 1.68 94 1011.7
20260506214200 8 304 3.2 8.0 0.00 1.68 1.68 94 1011.7
20260506213659 8 302 0.0 3.2 0.00 1.68 1.68 94 1011.7
20260506213156 8 160 0.0 0.0 0.00 1.68 1.68 95 1011.7
20260506212653 8 146 1.6 1.6 0.00 1.68 1.68 95 1011.4
20260506212148 8 182 3.2 3.2 0.00 1.68 1.68 95 1011.4
20260506211643 8 192 1.6 3.2 0.00 1.68 1.68 96 1011.7
20260506211140 8 240 1.6 3.2 0.00 1.68 1.68 96 1011.4
20260506210637 8 317 6.4 8.0 0.00 1.68 1.68 96 1011.7
20260506210135 8 86 3.2 8.0 0.00 1.68 1.68 96 1011.7
20260506205632 8 261 4.8 8.0 0.00 1.68 1.68 97 1011.4
20260506205132 8 286 8.0 11.3 0.00 1.68 1.68 98 1011.4
20260506204630 7 287 3.2 4.8 0.00 1.68 1.68 98 1011.4
20260506204127 7 188 4.8 4.8 0.00 1.68 1.68 99 1011.4
20260506203625 7 237 3.2 3.2 0.00 1.68 1.68 99 1011.1
20260506203121 7 172 1.6 1.6 0.00 1.68 1.68 99 1011.4
20260506202619 8 223 3.2 3.2 0.00 1.68 1.68 99 1011.1
20260506202115 7 201 1.6 1.6 0.00 1.68 1.68 99 1011.1
20260506201613 7 282 0.0 1.6 0.00 1.68 1.68 99 1011.1
20260506201109 7 181 1.6 1.6 0.00 1.68 1.68 99 1010.7
20260506200606 7 295 1.6 3.2 0.00 1.68 1.68 99 1010.7
20260506195559 7 189 4.8 4.8 0.00 1.68 1.68 99 1011.1
20260506195055 7 190 3.2 3.2 0.00 1.68 1.68 99 1011.1
20260506194553 7 178 3.2 3.2 0.00 1.68 1.68 99 1011.1
20260506194049 7 75 3.2 3.2 0.00 1.68 1.68 99 1011.4
20260506193547 7 148 1.6 1.6 0.00 1.68 1.68 99 1011.1
20260506193044 7 219 6.4 8.0 0.00 1.68 1.68 99 1011.1
20260506192541 7 144 3.2 3.2 0.00 1.68 1.68 99 1011.1
20260506192037 7 283 6.4 8.0 0.00 1.68 1.68 99 1010.7
20260506191534 7 200 0.0 1.6 0.00 1.68 1.68 99 1010.7
20260506191029 7 278 1.6 1.6 0.00 1.68 1.68 99 1010.7
20260506190527 7 220 1.6 3.2 0.00 1.68 1.68 99 1010.7
20260506190024 7 145 4.8 8.0 0.00 1.68 1.68 99 1010.4
20260506185521 7 252 3.2 4.8 0.00 1.68 1.68 99 1010.7
20260506185017 7 207 1.6 3.2 0.00 1.68 1.68 99 1010.4
20260506184515 7 224 3.2 3.2 0.00 1.68 1.68 99 1010.7
20260506184012 7 175 1.6 1.6 0.00 1.68 1.68 99 1010.7
20260506183507 7 163 1.6 1.6 0.00 1.68 1.68 99 1010.7
20260506183005 7 278 3.2 3.2 0.00 1.68 1.68 99 1010.4
20260506182502 7 86 4.8 4.8 0.00 1.68 1.68 99 1010.7
20260506181959 7 211 4.8 8.0 0.00 1.68 1.68 99 1010.4
20260506181457 7 209 4.8 4.8 0.00 1.68 1.68 99 1010.4
20260506180953 7 193 4.8 8.0 0.00 1.68 1.68 99 1010.0
20260506180450 7 207 1.6 3.2 0.00 1.68 1.68 99 1010.0
20260506175947 7 177 4.8 4.8 0.00 1.68 1.68 99 1010.0
20260506175443 7 168 1.6 1.6 0.00 1.68 1.68 99 1010.0
20260506174940 7 278 6.4 8.0 0.00 1.68 1.68 99 1010.0
20260506174438 8 245 0.0 0.0 0.00 1.68 1.68 99 1010.0
20260506173934 8 130 1.6 1.6 0.00 1.68 1.68 99 1010.0
20260506173431 8 174 0.0 0.0 0.00 1.68 1.68 99 1009.7
20260506172923 8 179 0.0 0.0 0.00 1.68 1.68 99 1010.0
20260506172420 8 263 0.0 0.0 0.00 1.68 1.68 99 1010.0
20260506171917 8 202 0.0 0.0 0.00 1.68 1.68 99 1009.7
20260506171414 8 187 0.0 0.0 0.00 1.68 1.68 99 1009.7
20260506170912 8 193 1.6 1.6 0.00 1.68 1.68 99 1009.7
20260506170408 8 162 0.0 0.0 0.00 1.68 1.68 99 1009.4
20260506165907 8 162 0.0 0.0 0.00 1.68 1.68 99 1009.7
20260506165405 8 152 0.0 0.0 0.00 1.68 1.68 99 1009.7
20260506164900 8 300 1.6 4.8 0.00 1.68 1.68 99 1009.7
20260506164357 8 157 0.0 0.0 0.00 1.68 1.68 99 1009.7
20260506163855 8 198 1.6 1.6 0.00 1.68 1.68 99 1009.7
20260506163349 8 256 0.0 0.0 0.00 1.68 1.68 99 1009.7
20260506162845 8 209 0.0 0.0 0.00 1.68 1.68 99 1009.7
20260506162343 8 230 0.0 1.6 0.00 1.68 1.68 99 1010.0
20260506161840 8 287 1.6 3.2 0.00 1.68 1.68 99 1010.0
20260506161337 8 171 1.6 1.6 0.13 1.68 1.68 99 1009.7
20260506160835 7 182 0.0 0.0 0.13 1.68 1.68 99 1010.0
20260506160332 7 160 0.0 0.0 0.00 1.65 1.65 99 1010.0
20260506155830 7 155 0.0 0.0 0.00 1.65 1.65 99 1010.0
20260506155326 7 155 0.0 0.0 0.00 1.65 1.65 99 1010.0
20260506153439 7 159 0.0 0.0 0.13 1.63 1.63 99 1010.4
20260506152936 7 215 0.0 0.0 0.00 1.60 1.60 99 1010.4
20260506152433 7 147 0.0 0.0 0.00 1.60 1.60 99 1010.4
20260506151932 7 173 0.0 0.0 0.00 1.60 1.60 99 1010.0
20260506151428 7 205 1.6 1.6 0.18 1.60 1.60 99 1010.0
20260506150926 7 160 0.0 0.0 0.18 1.60 1.60 99 1009.7
20260506150421 7 165 0.0 0.0 0.00 1.57 1.57 99 1010.0
20260506145919 7 174 0.0 0.0 0.00 1.57 1.57 99 1010.0
20260506145415 7 152 0.0 0.0 0.00 1.57 1.57 99 1009.7
20260506144913 7 158 0.0 0.0 0.18 1.57 1.57 99 1009.7
20260506144409 7 174 0.0 0.0 0.18 1.57 1.57 99 1009.7
20260506143908 7 163 0.0 0.0 0.13 1.55 1.55 99 1009.4
20260506143404 7 147 0.0 0.0 0.13 1.55 1.55 99 1009.7
20260506142902 7 154 0.0 0.0 0.18 1.52 1.52 99 1009.7
20260506142400 7 163 0.0 0.0 0.18 1.52 1.52 99 1009.7
20260506141858 7 161 0.0 0.0 0.13 1.50 1.50 99 1009.7
20260506141355 7 147 0.0 0.0 0.30 1.50 1.50 99 1009.7
20260506140854 7 144 0.0 0.0 0.18 1.47 1.47 99 1009.7
20260506140350 7 157 0.0 0.0 0.00 1.45 1.45 99 1009.7
20260506135847 7 148 0.0 0.0 0.13 1.45 1.45 99 1009.7
20260506135344 7 155 0.0 0.0 0.13 1.45 1.45 99 1009.7
20260506134840 6 150 0.0 0.0 0.00 1.42 1.42 99 1010.0
20260506134337 7 163 0.0 0.0 0.18 1.42 1.42 99 1010.0
20260506133834 7 154 0.0 0.0 0.13 1.40 1.40 99 1010.0
20260506133331 7 162 0.0 0.0 0.30 1.40 1.40 99 1010.4
20260506132827 7 161 0.0 0.0 0.18 1.37 1.37 99 1010.4
20260506132325 6 155 0.0 0.0 0.13 1.35 1.35 99 1010.0
20260506131823 7 154 0.0 0.0 0.30 1.35 1.35 99 1010.0
20260506131319 7 157 0.0 0.0 0.30 1.32 1.32 99 1010.0
20260506130816 7 154 0.0 0.0 0.30 1.30 1.30 99 1010.4
20260506130312 7 157 0.0 0.0 0.48 1.27 1.27 99 1010.4
20260506125810 6 163 0.0 0.0 0.30 1.22 1.22 99 1010.4
20260506125308 6 155 0.0 0.0 0.48 1.19 1.19 99 1010.4
20260506124807 7 143 0.0 0.0 0.48 1.14 1.14 99 1010.0
20260506124303 6 170 0.0 0.0 0.61 1.12 1.12 99 1010.4
20260506123801 6 153 0.0 0.0 0.43 1.07 1.07 99 1010.0
20260506123259 7 154 0.0 0.0 0.30 1.02 1.02 99 1010.0
20260506122755 6 156 0.0 0.0 0.18 0.99 0.99 99 1010.0
20260506122253 6 164 0.0 0.0 0.13 0.97 0.97 99 1010.0
20260506121751 6 131 0.0 0.0 0.13 0.97 0.97 99 1010.0
20260506121248 6 167 0.0 0.0 0.00 0.94 0.94 99 1009.7
20260506120744 7 156 0.0 0.0 0.18 0.94 0.94 99 1009.7
20260506120243 7 151 0.0 0.0 0.18 0.94 0.94 99 1010.0
20260506115740 6 147 0.0 0.0 0.00 0.91 0.91 99 1009.7
20260506115238 6 217 0.0 0.0 0.00 0.91 0.91 99 1010.0
20260506114736 7 115 0.0 0.0 0.18 0.91 0.91 99 1009.7
20260506114233 7 154 0.0 0.0 0.00 0.89 0.89 99 1010.4
20260506113731 7 157 0.0 0.0 0.13 0.89 0.89 99 1010.4
20260506113228 7 149 0.0 0.0 0.13 0.89 0.89 99 1010.0
20260506112725 7 157 0.0 0.0 0.00 0.86 0.86 99 1010.0
20260506112222 7 155 0.0 0.0 0.18 0.86 0.86 99 1010.4
20260506111720 7 150 0.0 0.0 0.18 0.86 0.86 99 1010.4
20260506111218 7 160 0.0 0.0 0.13 0.84 0.84 99 1010.4
20260506110714 7 158 0.0 0.0 0.30 0.84 0.84 99 1010.4
20260506110212 7 167 0.0 0.0 0.30 0.81 0.81 99 1010.7
20260506105708 7 159 0.0 0.0 0.13 0.79 0.79 99 1010.4
20260506105205 7 163 0.0 0.0 0.18 0.76 0.76 99 1010.4
20260506104703 7 157 0.0 0.0 0.13 0.74 0.74 99 1010.4
20260506104200 7 158 0.0 0.0 0.13 0.74 0.74 99 1010.4
20260506103657 7 148 0.0 0.0 0.18 0.71 0.71 99 1010.0
20260506103155 6 154 0.0 0.0 0.30 0.71 0.71 99 1010.0
20260506102653 6 147 0.0 0.0 0.30 0.69 0.69 99 1010.4
20260506102150 6 155 0.0 0.0 0.18 0.66 0.66 99 1010.0
20260506101647 6 156 0.0 0.0 0.00 0.64 0.64 99 1010.4
20260506101144 6 146 0.0 0.0 0.18 0.64 0.64 99 1010.0
20260506100642 6 155 0.0 0.0 0.18 0.64 0.64 99 1010.0
20260506100140 6 56 0.0 0.0 0.13 0.61 0.61 99 1010.0
20260506095638 6 161 0.0 0.0 0.13 0.61 0.61 99 1009.7
20260506095134 7 154 0.0 0.0 0.00 0.58 0.58 99 1009.7
20260506094632 6 152 0.0 0.0 0.18 0.58 0.58 99 1009.7
20260506094130 7 142 0.0 0.0 0.18 0.58 0.58 99 1010.0
20260506093628 7 143 0.0 0.0 0.13 0.56 0.56 99 1010.0
20260506093125 7 155 0.0 0.0 0.13 0.56 0.56 99 1010.4
20260506092623 7 177 0.0 0.0 0.18 0.53 0.53 99 1010.4
20260506092119 7 140 0.0 0.0 0.30 0.53 0.53 99 1010.7
20260506091617 7 155 0.0 0.0 0.43 0.51 0.51 99 1011.1
20260506091114 7 158 0.0 0.0 0.48 0.48 0.48 99 1010.7
20260506090613 7 185 0.0 0.0 0.30 0.43 0.43 99 1011.1
20260506090108 7 149 0.0 0.0 0.18 0.38 0.38 99 1010.7
20260506085606 7 149 0.0 0.0 0.00 0.36 0.36 99 1010.7
20260506085101 7 158 0.0 0.0 0.13 0.36 0.36 99 1010.7
20260506084559 7 155 0.0 0.0 0.00 0.33 0.33 99 1010.4
20260506084055 7 176 0.0 0.0 0.00 0.33 0.33 99 1010.7
20260506083552 7 116 0.0 0.0 0.00 0.33 0.33 99 1010.4
20260506083050 7 162 0.0 0.0 0.18 0.33 0.33 99 1010.4
20260506082546 7 153 0.0 0.0 0.18 0.33 0.33 99 1010.7
20260506082042 7 154 0.0 0.0 0.18 0.30 0.30 99 1010.7
20260506081540 7 210 4.8 8.0 0.18 0.30 0.30 99 1011.1
20260506081037 7 151 0.0 0.0 0.00 0.28 0.28 99 1010.4
20260506080535 7 312 1.6 3.2 0.13 0.28 0.28 99 1010.7
20260506073519 7 151 1.6 1.6 0.00 0.25 0.25 99 1010.4
20260506073015 7 183 0.0 1.6 0.00 0.25 0.25 99 1010.4
20260506072512 7 187 0.0 0.0 0.00 0.25 0.25 99 1010.4
20260506072010 8 154 0.0 0.0 0.00 0.25 0.25 99 1010.4
20260506071508 8 156 0.0 0.0 0.00 0.25 0.25 99 1010.4
20260506071005 8 145 0.0 0.0 0.00 0.25 0.25 99 1010.7
20260506070502 8 148 0.0 0.0 0.00 0.25 0.25 99 1010.4
20260506062439 8 157 0.0 0.0 0.00 0.23 0.23 99 1010.7
20260506061935 8 137 0.0 0.0 0.13 0.23 0.23 99 1011.1
20260506061432 8 146 0.0 0.0 0.13 0.23 0.23 99 1011.1
20260506060930 8 144 0.0 0.0 0.18 0.20 0.20 99 1011.1
20260506060428 8 151 0.0 0.0 0.30 0.20 0.20 99 1011.1
20260506051400 8 147 0.0 0.0 0.00 0.15 0.15 99 1011.7
20260506050857 8 162 0.0 0.0 0.00 0.15 0.15 99 1011.7
20260506050354 8 153 0.0 0.0 0.00 0.15 0.15 99 1012.1
20260506044845 8 137 0.0 0.0 0.18 0.15 0.15 99 1012.1
20260506044343 8 158 0.0 0.0 0.00 0.13 0.13 99 1012.1
20260506043839 8 154 0.0 0.0 0.00 0.13 0.13 99 1012.1
20260506043337 8 157 0.0 0.0 0.00 0.13 0.13 99 1012.1
20260506042835 8 157 0.0 0.0 0.00 0.13 0.13 99 1012.1
20260506042334 8 157 0.0 0.0 0.13 0.13 0.13 99 1012.1
20260506041832 8 153 0.0 0.0 0.43 0.13 0.13 99 1011.7
20260506041329 8 159 0.0 0.0 0.48 0.10 0.10 99 1011.7
20260506040826 8 171 0.0 0.0 0.30 0.05 0.05 99 1012.1
20260506040323 8 152 0.0 0.0 0.13 0.03 0.03 99 1011.7
20260506035819 8 153 0.0 0.0 0.18 1.12 1.12 99 1011.7
20260506035317 8 153 0.0 0.0 0.66 1.12 1.12 99 1011.7
20260506034814 8 153 0.0 0.0 0.61 1.07 1.07 99 1012.4
20260506034311 8 159 0.0 0.0 0.48 0.99 0.99 99 1012.1
20260506033808 8 155 0.0 0.0 0.43 0.97 0.97 99 1012.1
20260506033305 8 154 0.0 0.0 0.30 0.94 0.94 99 1012.1
20260506032801 8 160 0.0 0.0 0.18 0.89 0.89 99 1012.1
20260506032258 8 149 0.0 0.0 0.30 0.89 0.89 99 1011.7
20260506031755 8 154 0.0 0.0 0.30 0.86 0.86 99 1012.1
20260506031252 8 158 0.0 0.0 0.30 0.84 0.84 99 1012.1
20260506030751 8 157 0.0 0.0 0.30 0.81 0.81 99 1012.1
20260506030248 8 175 0.0 0.0 0.36 0.79 0.79 99 1012.1
20260506025745 8 157 0.0 0.0 0.18 0.76 0.76 99 1012.4
20260506025241 8 155 0.0 0.0 0.00 0.74 0.74 99 1012.4
20260506024738 9 156 0.0 0.0 0.00 0.74 0.74 99 1012.7
20260506024235 8 158 0.0 0.0 0.00 0.74 0.74 99 1012.4
20260506023731 8 154 0.0 0.0 0.00 0.74 0.74 99 1012.7
20260506023228 8 161 0.0 0.0 0.13 0.74 0.74 99 1012.1
20260506022725 8 155 0.0 0.0 0.18 0.71 0.71 99 1012.4
20260506022223 8 170 0.0 0.0 0.30 0.69 0.69 99 1012.4
20260506021721 8 173 0.0 0.0 0.43 0.69 0.69 99 1012.4
20260506021218 9 157 0.0 0.0 0.13 0.64 0.64 99 1012.1
20260506020714 9 156 0.0 0.0 0.18 0.61 0.61 99 1012.4
20260506020212 9 160 0.0 0.0 0.18 0.61 0.61 99 1012.1
20260506015709 9 155 0.0 0.0 0.13 0.58 0.58 99 1012.1
20260506015207 9 160 0.0 0.0 0.18 0.56 0.56 99 1012.1
20260506014704 9 157 0.0 0.0 0.13 0.53 0.53 99 1012.1
20260506014159 9 167 0.0 0.0 0.18 0.51 0.51 99 1011.7
20260506013658 9 155 0.0 0.0 0.48 0.51 0.51 99 1012.1
20260506013154 9 149 0.0 0.0 0.43 0.46 0.46 99 1012.4
20260506012651 9 152 0.0 0.0 0.48 0.43 0.43 99 1012.1
20260506012147 9 155 0.0 0.0 0.30 0.38 0.38 99 1012.1
20260506011639 9 160 0.0 0.0 0.13 0.36 0.36 99 1012.1
20260506011135 9 176 0.0 0.0 0.18 0.33 0.33 99 1012.1